Flag for Japan Weather past 2 weeks in Fukushima, Japan

Now
51 °F

Cool.


Feels Like: 51 °F
Forecast: 44 / 82 °F
Wind: 2 mph from Northwest

Location: Wakamatsu

Current Time: Apr 28, 2015 at 3:55:40 AM

Latest Report: Apr 28, 2015 at 2:00 AM


Visibility: 13 mi

Pressure: 30.10 "Hg

Humidity: 73%

Dew point: 43 °F

Location of FukushimaLocation

Historic Weather in Fukushima — Graph

°F

Fukushima temperature yesterday

Maximum temperature yesterday: 82 °F (at 4:00 PM)
Minimum temperature yesterday: 44 °F (at 5:00 AM)
Average temperature yesterday: 62 °F

Past Weeks' High & Low Weather Summary

 TemperatureHumidityPressure
High82 °F (Apr 27, 4:00 PM)100% (Apr 14, 9:00 PM)30.40 "Hg (Apr 14, 9:00 PM)
Low36 °F (Apr 18, 5:00 AM)6% (Apr 26, 4:00 PM)29.47 "Hg (Apr 15, 3:00 PM)
Average55 °F68%29.98 "Hg
* Reported Apr 13 2:00 AM — Apr 28 2:00 AM, Fukushima, Weather by CustomWeather, © 2015

Note: Actual official high and low records may vary slightly from our data, if they occured in-between our weather recording intervals... More about our weather records

Advertising

Fukushima weather history for previous 24 hours

 ConditionsComfort  
Time TempWeatherWind HumidityBarometerVisibility
2:00 AM
Tue, Apr 28
51 °FCool.2 mph73%30.10 "Hg12 mi
1:00 AM52 °FCool.1 mph70%30.09 "Hg12 mi
12:00 AM55 °FCool.2 mph62%30.09 "Hg12 mi
11:00 PM
Mon, Apr 27
57 °FCool.2 mph60%30.09 "Hg12 mi
10:00 PM58 °FRefreshingly cool.1 mph57%30.07 "Hg12 mi
9:00 PM61 °FRefreshingly cool.3 mph53%30.06 "Hg12 mi
8:00 PM65 °FMild.2 mph41%30.04 "Hg12 mi
7:00 PM68 °FMild.3 mph35%30.01 "Hg12 mi
6:00 PM75 °FMild.6 mph23%29.98 "Hg12 mi
5:00 PM80 °FPleasantly warm.8 mph17%29.96 "Hg12 mi
4:00 PM82 °FPleasantly warm.10 mph14%29.95 "Hg12 mi
3:00 PM82 °FPleasantly warm.6 mph16%29.94 "Hg12 mi
2:00 PM81 °FPleasantly warm.3 mph19%29.96 "Hg12 mi
1:00 PM78 °FPleasantly warm.5 mph21%29.99 "Hg12 mi
12:00 PM76 °FMild.5 mph22%30.01 "Hg12 mi
11:00 AM70 °FMild.3 mph33%30.06 "Hg12 mi
10:00 AM66 °FMild.3 mph40%30.09 "Hg12 mi
9:00 AM59 °FRefreshingly cool.1 mph50%30.11 "Hg12 mi
8:00 AM54 °FCool.3 mph58%30.13 "Hg12 mi
7:00 AM49 °FCool.3 mph69%30.14 "Hg12 mi
6:00 AM46 °FCool.2 mph75%30.14 "Hg12 mi
5:00 AM44 °FQuite cool.2 mph80%30.13 "Hg12 mi
4:00 AM44 °FQuite cool.1 mph78%30.12 "Hg12 mi
3:00 AM46 °FCool.1 mph71%30.11 "Hg12 mi
Weather by CustomWeather, © 2015

See weather overviewHow to use our weather pages